When you browse on this site, cookies collect data to enhance your experience and personalize the content and advertising you see.
Visit our Privacy Policy to learn more. By continuing to use the site, you agree to this use of cookies and data.
  • In Deutschland
  • Länderverzeichnis
  • Für 7 Tage
  • Wassertemperatur
  • Satellitenkarten
  • Wetterkarte
  • Widgets
  • user-avatar
    Anmelden

    Stündliche Wetter Algier

    Heute, 22 Mai, Mittwoch

    Zeit Temperatur Niederschläge Wind Luftdruck Luftfeuchtigkeit
    00:00 +21°C° 0 mm 1 m/S 749 mmHg 68%
    01:00 +20°C° 0 mm 1 m/S 749 mmHg 68%
    02:00 +20°C° 0 mm 1 m/S 748 mmHg 68%
    03:00 +20°C° 0 mm 1 m/S 748 mmHg 68%
    04:00 +20°C° 0 mm 1 m/S 749 mmHg 67%
    05:00 +20°C° 0 mm 1 m/S 749 mmHg 66%
    06:00 +21°C° 0 mm 1 m/S 749 mmHg 65%
    07:00 +22°C° 0 mm 1 m/S 749 mmHg 60%
    08:00 +23°C° 0 mm 1 m/S 750 mmHg 56%
    09:00 +25°C° 0 mm 2 m/S 750 mmHg 51%
    10:00 +25°C° 0 mm 2 m/S 750 mmHg 50%
    11:00 +26°C° 0 mm 3 m/S 750 mmHg 48%
    12:00 +26°C° 0 mm 4 m/S 750 mmHg 47%
    13:00 +26°C° 0 mm 4 m/S 750 mmHg 46%
    14:00 +26°C° 0 mm 4 m/S 750 mmHg 46%
    15:00 +26°C° 0 mm 4 m/S 749 mmHg 45%
    16:00 +25°C° 0 mm 4 m/S 750 mmHg 48%
    17:00 +23°C° 0 mm 4 m/S 750 mmHg 52%
    18:00 +22°C° 0 mm 3 m/S 750 mmHg 55%
    19:00 +22°C° 0 mm 3 m/S 750 mmHg 59%
    20:00 +21°C° 0 mm 3 m/S 751 mmHg 63%
    21:00 +20°C° 0 mm 2 m/S 751 mmHg 67%
    22:00 +20°C° 0 mm 2 m/S 751 mmHg 67%
    23:00 +19°C° 0 mm 2 m/S 751 mmHg 66%

    Morgen, 23 Mai, Donnerstag

    Zeit Temperatur Niederschläge Wind Luftdruck Luftfeuchtigkeit
    00:00 +19°C° 0 mm 2 m/S 751 mmHg 65%
    01:00 +19°C° 0 mm 2 m/S 751 mmHg 62%
    02:00 +19°C° 0 mm 2 m/S 750 mmHg 59%
    03:00 +19°C° 0 mm 2 m/S 750 mmHg 55%
    04:00 +19°C° 0 mm 2 m/S 750 mmHg 53%
    05:00 +19°C° 0 mm 2 m/S 750 mmHg 50%
    06:00 +20°C° 0 mm 2 m/S 751 mmHg 47%
    07:00 +23°C° 0 mm 2 m/S 751 mmHg 42%
    08:00 +24°C° 0 mm 2 m/S 751 mmHg 36%
    09:00 +26°C° 0 mm 2 m/S 751 mmHg 30%
    10:00 +27°C° 0 mm 3 m/S 751 mmHg 29%
    11:00 +28°C° 0 mm 4 m/S 751 mmHg 28%
    12:00 +28°C° 0 mm 4 m/S 750 mmHg 27%
    13:00 +28°C° 0 mm 5 m/S 750 mmHg 28%
    14:00 +28°C° 0 mm 5 m/S 750 mmHg 29%
    15:00 +27°C° 0 mm 5 m/S 749 mmHg 30%
    16:00 +26°C° 0 mm 5 m/S 749 mmHg 33%
    17:00 +26°C° 0 mm 4 m/S 749 mmHg 36%
    18:00 +25°C° 0 mm 4 m/S 749 mmHg 39%
    19:00 +24°C° 0 mm 3 m/S 749 mmHg 42%
    20:00 +22°C° 0 mm 3 m/S 749 mmHg 45%
    21:00 +21°C° 0 mm 3 m/S 749 mmHg 48%
    22:00 +21°C° 0 mm 2 m/S 749 mmHg 48%
    23:00 +20°C° 0 mm 2 m/S 748 mmHg 48%

    übermorgen, 24 Mai, Freitag

    Zeit Temperatur Niederschläge Wind Luftdruck Luftfeuchtigkeit
    00:00 +20°C° 0 mm 2 m/S 748 mmHg 49%
    01:00 +20°C° 0 mm 2 m/S 747 mmHg 48%
    02:00 +20°C° 0 mm 2 m/S 747 mmHg 48%
    03:00 +20°C° 0 mm 2 m/S 747 mmHg 48%
    04:00 +20°C° 0 mm 2 m/S 746 mmHg 48%
    05:00 +21°C° 0 mm 2 m/S 746 mmHg 48%
    06:00 +21°C° 0 mm 2 m/S 746 mmHg 48%
    07:00 +24°C° 0 mm 2 m/S 746 mmHg 46%
    08:00 +25°C° 0 mm 3 m/S 746 mmHg 43%
    09:00 +26°C° 0 mm 3 m/S 746 mmHg 40%
    10:00 +27°C° 0 mm 4 m/S 746 mmHg 40%
    11:00 +28°C° 0 mm 4 m/S 746 mmHg 40%
    12:00 +28°C° 0 mm 5 m/S 745 mmHg 40%
    13:00 +28°C° 0 mm 5 m/S 745 mmHg 41%
    14:00 +28°C° 0 mm 5 m/S 744 mmHg 43%
    15:00 +28°C° 0 mm 5 m/S 744 mmHg 44%
    16:00 +27°C° 0 mm 5 m/S 744 mmHg 50%
    17:00 +25°C° 0 mm 5 m/S 744 mmHg 55%
    18:00 +23°C° 0 mm 5 m/S 744 mmHg 61%
    19:00 +22°C° 0 mm 5 m/S 744 mmHg 66%
    20:00 +21°C° 0 mm 4 m/S 744 mmHg 71%
    21:00 +21°C° 0 mm 4 m/S 744 mmHg 76%
    22:00 +20°C° 0 mm 4 m/S 744 mmHg 77%
    23:00 +20°C° 0 mm 4 m/S 744 mmHg 78%

    25 Mai, Samstag

    Zeit Temperatur Niederschläge Wind Luftdruck Luftfeuchtigkeit
    00:00 +20°C° 0 mm 3 m/S 744 mmHg 79%
    01:00 +20°C° 0.1 mm 3 m/S 743 mmHg 82%
    02:00 +19°C° 0.1 mm 3 m/S 743 mmHg 84%
    03:00 +19°C° 0.1 mm 3 m/S 743 mmHg 87%
    04:00 +19°C° 0.2 mm 3 m/S 743 mmHg 87%
    05:00 +19°C° 0.2 mm 3 m/S 743 mmHg 87%
    06:00 +19°C° 0.2 mm 3 m/S 744 mmHg 87%
    07:00 +20°C° 0.1 mm 3 m/S 744 mmHg 84%
    08:00 +20°C° 0.1 mm 3 m/S 744 mmHg 82%
    09:00 +20°C° 0.1 mm 4 m/S 745 mmHg 80%
    10:00 +20°C° 0.3 mm 4 m/S 745 mmHg 79%
    11:00 +20°C° 0.3 mm 4 m/S 745 mmHg 79%
    12:00 +20°C° 0.3 mm 4 m/S 745 mmHg 78%
    13:00 +20°C° 0.2 mm 4 m/S 745 mmHg 78%
    14:00 +20°C° 0.2 mm 4 m/S 745 mmHg 79%
    15:00 +19°C° 0.2 mm 4 m/S 744 mmHg 79%
    16:00 +19°C° 0 mm 3 m/S 745 mmHg 79%
    17:00 +19°C° 0 mm 3 m/S 745 mmHg 79%
    18:00 +19°C° 0 mm 3 m/S 745 mmHg 79%
    19:00 +19°C° 0 mm 2 m/S 746 mmHg 79%
    20:00 +19°C° 0 mm 2 m/S 746 mmHg 79%
    21:00 +19°C° 0 mm 2 m/S 747 mmHg 79%
    22:00 +18°C° 0 mm 2 m/S 747 mmHg 80%
    23:00 +18°C° 0 mm 2 m/S 747 mmHg 80%

    26 Mai, Sonntag

    Zeit Temperatur Niederschläge Wind Luftdruck Luftfeuchtigkeit
    00:00 +19°C° 0 mm 1 m/S 746 mmHg 81%
    01:00 +18°C° 0 mm 2 m/S 746 mmHg 82%
    02:00 +18°C° 0 mm 2 m/S 746 mmHg 82%
    03:00 +18°C° 0 mm 2 m/S 746 mmHg 83%
    04:00 +18°C° 0 mm 2 m/S 746 mmHg 81%
    05:00 +18°C° 0 mm 2 m/S 746 mmHg 80%
    06:00 +18°C° 0 mm 2 m/S 746 mmHg 78%
    07:00 +19°C° 0.1 mm 2 m/S 746 mmHg 73%
    08:00 +20°C° 0.1 mm 3 m/S 746 mmHg 67%
    09:00 +21°C° 0.1 mm 3 m/S 746 mmHg 62%
    10:00 +21°C° 0.3 mm 4 m/S 746 mmHg 62%
    11:00 +22°C° 0.3 mm 5 m/S 746 mmHg 62%
    12:00 +22°C° 0.3 mm 6 m/S 746 mmHg 62%
    13:00 +21°C° 0.9 mm 5 m/S 746 mmHg 66%
    14:00 +20°C° 0.9 mm 5 m/S 746 mmHg 70%
    15:00 +20°C° 0.9 mm 5 m/S 746 mmHg 75%
    16:00 +19°C° 1.1 mm 5 m/S 746 mmHg 75%
    17:00 +19°C° 1.1 mm 4 m/S 746 mmHg 76%
    18:00 +19°C° 1.1 mm 4 m/S 746 mmHg 77%
    19:00 +19°C° 0.4 mm 3 m/S 747 mmHg 78%
    20:00 +18°C° 0.4 mm 2 m/S 747 mmHg 79%
    21:00 +19°C° 0.4 mm 1 m/S 748 mmHg 81%
    22:00 +18°C° 0.2 mm 2 m/S 747 mmHg 81%
    23:00 +18°C° 0.2 mm 2 m/S 747 mmHg 82%

    27 Mai, Montag

    Zeit Temperatur Niederschläge Wind Luftdruck Luftfeuchtigkeit
    00:00 +17°C° 0.2 mm 2 m/S 747 mmHg 83%
    01:00 +17°C° 0.5 mm 2 m/S 747 mmHg 82%
    02:00 +17°C° 0.5 mm 3 m/S 746 mmHg 81%
    03:00 +17°C° 0.5 mm 3 m/S 746 mmHg 80%
    04:00 +17°C° 1.2 mm 4 m/S 746 mmHg 82%
    05:00 +17°C° 1.2 mm 4 m/S 746 mmHg 83%
    06:00 +17°C° 1.2 mm 4 m/S 746 mmHg 84%
    07:00 +17°C° 1.8 mm 4 m/S 746 mmHg 86%
    08:00 +16°C° 1.8 mm 5 m/S 746 mmHg 87%
    09:00 +16°C° 1.8 mm 5 m/S 746 mmHg 88%
    10:00 +17°C° 1.3 mm 6 m/S 746 mmHg 86%
    11:00 +17°C° 1.3 mm 6 m/S 746 mmHg 84%
    12:00 +17°C° 1.3 mm 7 m/S 746 mmHg 82%
    13:00 +17°C° 1.2 mm 7 m/S 746 mmHg 82%
    14:00 +17°C° 1.2 mm 6 m/S 746 mmHg 82%
    15:00 +17°C° 1.2 mm 6 m/S 746 mmHg 82%
    16:00 +17°C° 0.5 mm 5 m/S 746 mmHg 81%
    17:00 +19°C° 0.5 mm 4 m/S 747 mmHg 81%
    18:00 +19°C° 0.5 mm 4 m/S 747 mmHg 81%
    19:00 +18°C° 0.1 mm 3 m/S 747 mmHg 82%
    20:00 +18°C° 0.1 mm 3 m/S 748 mmHg 84%
    21:00 +18°C° 0.1 mm 3 m/S 748 mmHg 86%
    22:00 +18°C° 0 mm 3 m/S 748 mmHg 86%
    23:00 +17°C° 0 mm 3 m/S 747 mmHg 86%
    Mehr zeigen